This demonstration page uses our WeatherBlox Daily Observations layout. Learn more.

Left ArrowRight Arrow

36.17497, -115.13722

Hourly Observations for April 6, 2020

Temp ( °F °C ) Dew Point ( °F °C ) Humidity (%) Winds ( mph kmh ) Pressure ( in mb ) Visibility ( mi km ) Precip ( " mm )
12:53 am 00:53 Clear 62 16.7 37 2.8 40 40 SSW 8 13 29.74 1007 10 16 N/A
1:53 am 01:53 Clear 61 16.1 37 2.8 41 41 SSW 7 11 29.73 1007 10 16 N/A
2:53 am 02:53 Clear 61 16.1 37 2.8 41 41 S 3 6 29.72 1006 10 16 N/A
3:53 am 03:53 Clear 60 15.6 35 1.7 39 39 S 9 15 29.73 1007 10 16 N/A
4:53 am 04:53 Clear 60 15.6 32 undefined 35 35 SSE 13 20 29.73 1007 10 16 N/A
5:53 am 05:53 Clear 59 15 31 -0.6 35 35 S 13 20 29.76 1008 10 16 N/A
6:53 am 06:53 Sunny 59 15 31 -0.6 35 35 S 7 11 29.79 1009 10 16 N/A
7:53 am 07:53 Sunny 58 14.4 35 1.7 42 42 SSE 13 20 29.81 1010 10 16 N/A
8:53 am 08:53 Sunny 59 15 34 1.1 39 39 S 12 19 29.83 1010 10 16 N/A
9:53 am 09:53 Sunny 62 16.7 31 -0.6 31 31 S 12 19 29.85 1011 10 16 N/A
10:53 am 10:53 Sunny 63 17.2 32 undefined 31 31 SSE 12 19 29.86 1011 10 16 N/A
11:53 am 11:53 Partly Cloudy 63 17.2 32 undefined 31 31 SE 14 22 29.87 1012 10 16 N/A
12:53 pm 12:53 Partly Cloudy 63 17.2 33 0.6 33 33 SSE 9 15 29.88 1012 10 16 N/A
1:53 pm 13:53 Cloudy 65 18.3 33 0.6 31 31 SE 13 20 29.87 1011 10 16 N/A
2:53 pm 14:53 Cloudy 65 18.3 34 1.1 32 32 SE 13 20 29.85 1011 10 16 N/A
3:53 pm 15:53 Cloudy 67 19.4 34 1.1 30 30 SSE 9 15 29.84 1011 10 16 N/A
4:53 pm 16:53 Cloudy 67 19.4 33 0.6 28 28 S 13 20 29.83 1010 10 16 N/A
5:53 pm 17:53 Mostly Cloudy 66 18.9 36 2.2 33 33 WSW 12 19 29.85 1011 10 16 N/A
6:53 pm 18:53 Cloudy 64 17.8 37 2.8 37 37 WSW 10 17 29.88 1012 10 16 N/A
7:30 pm 19:30 Cloudy 59 15 42 5.6 54 54 NNW 13 20 29.84 1011 10 16 N/A
7:53 pm 19:53 Cloudy 57 13.9 44 6.7 62 62 NNW 15 24 29.92 1013 10 16 N/A
8:53 pm 20:53 Cloudy with Light Rain 55 12.8 47 8.3 74 74 WNW 13 20 29.97 1015 10 16 0.00 0.00
9:53 pm 21:53 Cloudy 54 12.2 46 7.8 75 75 NNW 14 22 29.98 1015 10 16 0.00 0.00
10:53 pm 22:53 Cloudy 55 12.8 45 7.2 69 69 NW 15 24 29.98 1015 10 16 N/A
11:53 pm 23:53 Cloudy 54 12.2 44 6.7 69 69 NW 13 20 29.99 1016 10 16 N/A

Powered by AerisWeather